Latest Coastal Weather Observations for Marion Reef

IDQ60701

Issued at 3:21 pm EST Thursday 2 July 2015 (issued every 10 minutes, with the page automatically refreshed every 10 minutes)

About coastal observations | Map of coastal stations | Coastal observations for QLD | Marine services | Other Formats
Station Details ID: 200704 Name: MARION REEF Lat: -19.10 Lon: 152.39 Height: 2.0 m
Data from the previous 72 hours. | See also: Recent months for locations in Queensland
Date/Time
EST
Temp

°C
Wind Pressure Rain
since 9am
mm
Weather Cloud Vis
km
Sea
Height
m
Swell
Dir
 
Speed
knots
Gust
knots
hPa Trend Height
m
Period
s
Dir
02/03:00pm 23.8 SSE 19 23 1015.9 - - - - - - - - -
02/02:30pm 23.7 SSE 20 23 1015.9 - - - - - - - - -
02/02:00pm 23.7 SSE 20 25 1016.1 - - - - - - - - -
02/01:30pm 23.8 S 20 25 1016.5 - - - - - - - - -
02/01:00pm 23.5 S 20 24 1016.6 - - - - - - - - -
02/12:30pm 23.7 SSE 20 23 1017.2 - - - - - - - - -
02/12:00pm 23.7 SSE 19 23 1017.5 - - - - - - - - -
02/11:30am 23.6 SSE 20 24 1017.9 - - - - - - - - -
02/11:00am 23.7 SSE 20 23 1018.0 - - - - - - - - -
02/10:30am 23.5 SSE 21 24 1018.4 - - - - - - - - -
02/10:00am 23.5 SSE 20 25 1018.6 - - - - - - - - -
02/09:30am 23.5 SSE 20 24 1018.9 - - - - - - - - -
02/09:00am 23.9 SSE 19 23 1019.0 - - - - - - - - -
02/08:30am 23.5 SSE 20 23 1018.9 - - - - - - - - -
02/08:00am 23.6 SSE 19 24 1018.6 - - - - - - - - -
02/07:30am 23.9 SSE 21 25 1018.5 - - - - - - - - -
02/07:00am 23.4 SSE 21 26 1018.1 - - - - - - - - -
02/06:30am 23.3 SE 21 25 1017.7 - - - - - - - - -
02/06:00am 23.5 SE 22 25 1017.2 - - - - - - - - -
02/05:30am 23.5 SSE 22 26 1017.1 - - - - - - - - -
02/05:00am 23.6 SE 22 25 1016.9 - - - - - - - - -
02/04:30am 23.1 SSE 22 27 1016.8 - - - - - - - - -
02/04:00am 23.5 SSE 23 26 1016.9 - - - - - - - - -
02/03:30am 23.5 SSE 22 26 1017.1 - - - - - - - - -
02/03:00am 23.4 SSE 22 27 1016.8 - - - - - - - - -
02/02:30am 23.3 SSE 24 29 1017.1 - - - - - - - - -
02/02:00am 23.2 SSE 24 28 1017.1 - - - - - - - - -
02/01:30am 23.1 SSE 22 26 1017.5 - - - - - - - - -
02/01:00am 23.4 SSE 22 28 1017.9 - - - - - - - - -
02/12:30am 23.4 SSE 22 26 1018.1 - - - - - - - - -
 
Date/Time
EST
Temp

°C
Wind Pressure Rain
since 9am
mm
Weather Cloud Vis
km
Sea
Height
m
Swell
Dir
 
Speed
knots
Gust
knots
hPa Trend Height
m
Period
s
Dir
01/11:30pm 23.8 SSE 23 26 1018.3 - - - - - - - - -
01/11:00pm 23.4 SSE 22 26 1018.5 - - - - - - - - -
01/10:30pm 23.7 SSE 22 25 1018.8 - - - - - - - - -
01/10:00pm 23.7 SSE 22 25 1018.9 - - - - - - - - -
01/09:30pm 23.7 SSE 22 26 1019.1 - - - - - - - - -
01/09:00pm 23.9 SSE 22 26 1019.0 - - - - - - - - -
01/08:30pm 23.8 SSE 23 27 1018.9 - - - - - - - - -
01/08:00pm 23.9 SE 22 25 1018.6 - - - - - - - - -
01/07:30pm 23.7 SE 21 25 1018.6 - - - - - - - - -
01/07:00pm 23.8 SE 21 25 1018.2 - - - - - - - - -
01/06:30pm 23.7 SE 22 25 1017.9 - - - - - - - - -
01/06:00pm 24.0 SE 21 25 1017.5 - - - - - - - - -
01/05:30pm 23.8 SE 21 25 1017.3 - - - - - - - - -
01/05:00pm 23.8 SE 19 25 1017.1 - - - - - - - - -
01/04:30pm 23.8 SE 22 25 1017.0 - - - - - - - - -
01/04:00pm 23.8 SE 22 25 1016.8 - - - - - - - - -
01/03:30pm 23.6 SSE 23 25 1016.8 - - - - - - - - -
01/03:00pm 23.9 SE 21 24 1016.7 - - - - - - - - -
01/02:30pm 24.1 SSE 20 24 1017.0 - - - - - - - - -
01/02:00pm 23.9 SSE 21 24 1017.0 - - - - - - - - -
01/01:30pm 23.9 SE 19 23 1017.5 - - - - - - - - -
01/01:00pm 23.9 SSE 20 23 1017.5 - - - - - - - - -
01/12:30pm 23.8 SSE 20 23 1018.3 - - - - - - - - -
01/12:00pm 24.1 SSE 18 22 1018.5 - - - - - - - - -
01/11:30am 23.7 SSE 19 22 1019.1 - - - - - - - - -
01/11:00am 23.7 SSE 20 23 1019.1 - - - - - - - - -
01/10:30am 23.7 SSE 21 24 1019.6 - - - - - - - - -
01/10:00am 23.8 SSE 20 23 1019.7 - - - - - - - - -
01/09:30am 23.6 SSE 20 24 1020.0 - - - - - - - - -
01/09:00am 24.1 SSE 20 23 1019.9 - - - - - - - - -
01/08:30am 23.8 SSE 19 22 1019.9 - - - - - - - - -
01/08:00am 23.6 SSE 19 22 1019.7 - - - - - - - - -
01/07:30am 23.4 SSE 20 23 1019.6 - - - - - - - - -
01/07:00am 23.5 SSE 18 22 1019.3 - - - - - - - - -
01/06:30am 23.5 SSE 18 21 1019.2 - - - - - - - - -
01/06:00am 23.3 SSE 19 22 1018.7 - - - - - - - - -
01/05:30am 23.6 SE 18 21 1018.6 - - - - - - - - -
01/05:00am 23.2 SE 17 19 1018.3 - - - - - - - - -
01/04:30am 23.6 SE 14 18 1018.3 - - - - - - - - -
01/04:00am 23.6 SE 16 18 1018.2 - - - - - - - - -
01/03:30am 23.8 SE 15 18 1018.1 - - - - - - - - -
01/03:00am 24.0 SE 15 19 1018.1 - - - - - - - - -
01/02:30am 23.4 SE 16 18 1018.2 - - - - - - - - -
01/02:00am 23.7 SE 15 18 1018.2 - - - - - - - - -
01/01:30am 23.7 ESE 18 20 1018.6 - - - - - - - - -
01/01:00am 23.3 ESE 18 21 1018.7 - - - - - - - - -
01/12:30am 23.8 ESE 18 21 1019.1 - - - - - - - - -
01/12:00am 23.8 ESE 18 22 1019.2 - - - - - - - - -
 
Date/Time
EST
Temp

°C
Wind Pressure Rain
since 9am
mm
Weather Cloud Vis
km
Sea
Height
m
Swell
Dir
 
Speed
knots
Gust
knots
hPa Trend Height
m
Period
s
Dir
30/11:30pm 23.6 ESE 19 23 1019.5 - - - - - - - - -
30/11:00pm 24.5 ESE 18 21 1019.4 - - - - - - - - -
30/10:30pm 24.1 ESE 18 21 1019.6 - - - - - - - - -
30/10:00pm 24.2 ESE 16 19 1019.6 - - - - - - - - -
30/09:30pm 23.9 E 18 22 1019.6 - - - - - - - - -
30/09:00pm 24.2 E 16 18 1019.5 - - - - - - - - -
30/08:30pm 23.8 ESE 16 18 1019.5 - - - - - - - - -
30/08:00pm 24.2 E 16 18 1019.5 - - - - - - - - -
30/07:30pm 24.2 E 15 18 1019.5 - - - - - - - - -
30/07:00pm 24.3 ESE 17 19 1019.1 - - - - - - - - -
30/06:30pm 24.3 E 16 19 1019.0 - - - - - - - - -
30/06:00pm 24.5 ESE 16 19 1018.5 - - - - - - - - -
30/05:30pm 24.2 ESE 18 21 1018.3 - - - - - - - - -
30/05:00pm 24.5 E 19 21 1018.0 - - - - - - - - -
30/04:30pm 24.5 E 17 19 1017.8 - - - - - - - - -
30/04:00pm 24.5 ESE 18 21 1017.6 - - - - - - - - -
30/03:30pm 24.4 ESE 18 21 1017.5 - - - - - - - - -
30/03:00pm 24.5 E 18 23 1017.3 - - - - - - - - -
30/02:30pm 24.2 E 19 22 1017.5 - - - - - - - - -
30/02:00pm 24.3 E 20 23 1017.3 - - - - - - - - -
30/01:30pm 24.3 ESE 21 25 1017.4 - - - - - - - - -
30/01:00pm 24.2 ESE 22 25 1017.6 - - - - - - - - -
30/12:30pm 24.0 E 23 27 1017.9 - - - - - - - - -
30/12:00pm 23.9 ESE 22 26 1018.2 - - - - - - - - -
30/11:30am 24.0 ESE 23 27 1018.8 - - - - - - - - -
30/11:00am 24.2 ESE 22 25 1019.2 - - - - - - - - -
30/10:30am 23.9 ESE 21 25 1019.7 - - - - - - - - -
30/10:00am 24.1 ESE 20 24 1020.0 - - - - - - - - -
30/09:30am 24.0 ESE 22 25 1020.3 - - - - - - - - -
30/09:00am 24.2 ESE 21 25 1020.4 - - - - - - - - -
30/08:30am 23.9 ESE 21 25 1020.4 - - - - - - - - -
30/08:00am 24.1 ESE 21 25 1020.3 - - - - - - - - -
30/07:30am 23.7 ESE 22 25 1019.9 - - - - - - - - -
30/07:00am 23.8 ESE 21 25 1019.6 - - - - - - - - -
30/06:30am 23.9 SE 22 26 1019.5 - - - - - - - - -
30/06:00am 23.6 SE 22 26 1019.2 - - - - - - - - -
30/05:30am 23.7 SE 23 26 1018.9 - - - - - - - - -
30/05:00am 23.7 ESE 21 25 1018.7 - - - - - - - - -
30/04:30am 23.6 SE 23 27 1018.5 - - - - - - - - -
30/04:00am 23.7 SE 21 25 1018.4 - - - - - - - - -
30/03:30am 23.7 ESE 23 29 1018.6 - - - - - - - - -
30/03:00am 23.8 ESE 22 25 1018.5 - - - - - - - - -
30/02:30am 23.7 ESE 23 27 1018.7 - - - - - - - - -
30/02:00am 24.0 ESE 23 26 1018.6 - - - - - - - - -
30/01:30am 24.0 ESE 24 29 1018.9 - - - - - - - - -
30/01:00am 23.8 ESE 23 29 1019.1 - - - - - - - - -
30/12:30am 23.9 ESE 25 29 1019.5 - - - - - - - - -
30/12:00am 23.9 ESE 24 28 1019.5 - - - - - - - - -
 
Date/Time
EST
Temp

°C
Wind Pressure Rain
since 9am
mm
Weather Cloud Vis
km
Sea
Height
m
Swell
Dir
 
Speed
knots
Gust
knots
hPa Trend Height
m
Period
s
Dir
29/11:30pm 23.7 ESE 25 30 1019.8 - - - - - - - - -
29/11:00pm 24.0 ESE 28 31 1019.7 - - - - - - - - -
29/10:30pm 23.9 ESE 28 33 1019.9 - - - - - - - - -
29/10:00pm 24.2 ESE 26 - 1020.1 - - - - - - - - -
29/09:30pm 23.7 ESE 24 28 1020.3 - - - - - - - - -
29/09:00pm 23.8 ESE 23 29 1020.2 - - - - - - - - -
29/08:30pm 24.1 ESE 24 29 1020.3 - - - - - - - - -
29/08:00pm 24.2 ESE 23 29 1020.1 - - - - - - - - -
29/07:30pm 24.0 ESE 25 29 1020.0 - - - - - - - - -
29/07:00pm 24.1 ESE 26 30 1019.5 - - - - - - - - -
29/06:30pm 24.0 ESE 23 28 1019.4 - - - - - - - - -
29/06:00pm 23.9 ESE 24 29 1019.0 - - - - - - - - -
29/05:30pm 23.9 ESE 26 31 1019.0 - - - - - - - - -
29/05:00pm 23.9 ESE 27 31 1018.8 - - - - - - - - -
29/04:30pm 24.3 ESE 26 30 1018.6 - - - - - - - - -
29/04:00pm 24.1 ESE 27 31 1018.4 - - - - - - - - -
29/03:30pm 23.6 E 26 32 1018.5 - - - - - - - - -

Other Formats:

Comma delimited format used in spreadsheet applications
http://www.bom.gov.au/fwo/IDQ60701/IDQ60701.94298.axf

JavaScript Object Notation format (JSON) in row-major order
http://www.bom.gov.au/fwo/IDQ60701/IDQ60701.94298.json